EW0292 Weather Reports


time (UTC)temp
F
wind
direction
speed
knots
gust
knots
rain 1hr
in
rain 24hr
in
rain mn
in
humidity
%
barometer
mb
20260510153511 82 144 0.9 4.3 0.00 0.00 0.00 60 1012.8
20260510153009 82 176 1.7 4.3 0.00 0.00 0.00 59 1012.8
20260510152510 82 155 0.0 3.5 0.00 0.00 0.00 61 1012.7
20260510152006 81 167 0.9 2.6 0.00 0.00 0.00 62 1012.8
20260510151507 81 269 0.0 2.6 0.00 0.00 0.00 61 1012.8
20260510151004 80 133 0.0 2.6 0.00 0.00 0.00 62 1012.8
20260510150503 80 247 0.9 4.3 0.00 0.00 0.00 62 1012.7
20260510150002 80 231 1.7 4.3 0.00 0.00 0.00 61 1012.7
20260510145500 80 230 0.0 1.7 0.00 0.00 0.00 62 1012.8
20260510145059 79 200 0.0 2.6 0.00 0.00 0.00 62 1012.8
20260510144611 78 134 0.0 2.6 0.00 0.00 0.00 62 1012.7
20260510144100 78 216 0.0 3.5 0.00 0.00 0.00 63 1012.7
20260510143556 78 140 0.9 3.5 0.00 0.00 0.00 63 1012.7
20260510143108 78 134 0.0 3.5 0.00 0.00 0.00 62 1012.6
20260510142555 77 144 0.0 3.5 0.00 0.00 0.00 62 1012.6
20260510142056 77 223 0.0 4.3 0.00 0.00 0.00 62 1012.7
20260510141600 76 98 0.0 4.3 0.00 0.00 0.00 63 1012.6
20260510141052 76 143 0.0 3.5 0.00 0.00 0.00 63 1012.6
20260510140551 76 138 0.0 0.9 0.00 0.00 0.00 62 1012.6
20260510140051 75 102 0.0 1.7 0.00 0.00 0.00 62 1012.6
20260510135550 75 229 0.0 2.6 0.00 0.00 0.00 62 1012.5
20260510135051 74 98 0.9 2.6 0.00 0.00 0.00 62 1012.6
20260510134604 74 95 0.0 1.7 0.00 0.00 0.00 61 1012.7
20260510134050 73 116 0.0 1.7 0.00 0.00 0.00 61 1012.7
20260510133551 73 89 0.0 2.6 0.00 0.00 0.00 61 1012.7
20260510133049 72 82 0.0 2.6 0.00 0.00 0.00 61 1012.6
20260510132549 72 91 0.0 1.7 0.00 0.00 0.00 60 1012.6
20260510132049 71 56 0.0 2.6 0.00 0.00 0.00 60 1012.6
20260510131548 71 82 0.0 2.6 0.00 0.00 0.00 59 1012.5
20260510131048 70 90 0.0 1.7 0.00 0.00 0.00 58 1012.4
20260510130547 69 98 0.0 2.6 0.00 0.00 0.00 57 1012.4
20260510130047 69 109 0.0 2.6 0.00 0.00 0.00 59 1012.3
20260510125545 68 91 0.0 0.9 0.00 0.00 0.00 62 1012.4
20260510125047 67 75 0.0 0.9 0.00 0.00 0.00 62 1012.4
20260510124554 67 89 0.0 0.9 0.00 0.00 0.00 63 1012.4
20260510124045 66 74 0.0 1.7 0.00 0.00 0.00 63 1012.4
20260510123545 66 321 0.0 1.7 0.00 0.00 0.00 63 1012.4
20260510123045 66 102 0.0 0.9 0.00 0.00 0.00 63 1012.4
20260510122545 65 116 0.0 0.0 0.00 0.00 0.00 62 1012.2
20260510122043 65 116 0.0 0.0 0.00 0.00 0.00 62 1012.1
20260510121543 65 116 0.0 0.0 0.00 0.00 0.00 61 1012.1
20260510121042 65 116 0.0 0.0 0.00 0.00 0.00 61 1012.0
20260510120541 65 116 0.0 0.0 0.00 0.00 0.00 60 1012.0
20260510120041 65 116 0.0 0.0 0.00 0.00 0.00 60 1012.0
20260510115540 65 116 0.0 0.0 0.00 0.00 0.00 60 1011.9
20260510115040 65 116 0.0 0.0 0.00 0.00 0.00 60 1011.9
20260510114541 65 116 0.0 0.0 0.00 0.00 0.00 60 1011.9
20260510114040 65 116 0.0 0.0 0.00 0.00 0.00 59 1011.9
20260510113539 65 116 0.0 0.0 0.00 0.00 0.00 59 1011.9
20260510113039 65 116 0.0 0.0 0.00 0.00 0.00 59 1011.8
20260510112539 65 116 0.0 0.0 0.00 0.00 0.00 59 1011.8
20260510112043 65 116 0.0 0.0 0.00 0.00 0.00 59 1011.7
20260510111552 65 116 0.0 0.0 0.00 0.00 0.00 59 1011.8
20260510111037 65 117 0.0 0.0 0.00 0.00 0.00 59 1011.8
20260510110536 65 117 0.0 0.0 0.00 0.00 0.00 59 1011.8
20260510110041 65 117 0.0 0.0 0.00 0.00 0.00 59 1011.8
20260510105538 65 117 0.0 0.0 0.00 0.00 0.00 59 1011.8
20260510105035 66 117 0.0 0.0 0.00 0.00 0.00 59 1011.7
20260510104543 66 117 0.0 0.9 0.00 0.00 0.00 59 1011.7
20260510104037 66 117 0.0 0.0 0.00 0.00 0.00 59 1011.5
20260510103533 66 117 0.0 0.0 0.00 0.00 0.00 59 1011.5
20260510103034 66 117 0.0 0.9 0.00 0.00 0.00 59 1011.6
20260510102533 66 117 0.0 0.9 0.00 0.00 0.00 59 1011.6
20260510102031 66 117 0.0 0.0 0.00 0.00 0.00 59 1011.5
20260510101533 66 117 0.0 0.0 0.00 0.00 0.00 59 1011.5
20260510101030 66 117 0.0 0.0 0.00 0.00 0.00 60 1011.4
20260510100532 67 117 0.0 0.0 0.00 0.00 0.00 60 1011.3
20260510100028 67 117 0.0 0.0 0.00 0.00 0.00 60 1011.3
20260510095528 67 117 0.0 0.0 0.00 0.00 0.00 60 1011.3
20260510095028 67 117 0.0 0.0 0.00 0.00 0.00 60 1011.3
20260510094531 67 117 0.0 0.0 0.00 0.00 0.00 60 1011.3
20260510094026 67 117 0.0 0.0 0.00 0.00 0.00 60 1011.3
20260510093526 67 117 0.0 0.0 0.00 0.00 0.00 60 1011.3
20260510093026 67 117 0.0 0.0 0.00 0.00 0.00 61 1011.2
20260510092625 67 117 0.0 0.0 0.00 0.00 0.00 62 1011.2
20260510092024 67 117 0.0 0.0 0.00 0.00 0.00 62 1011.0
20260510091527 67 117 0.0 0.0 0.00 0.00 0.00 63 1011.0
20260510091024 68 117 0.0 0.0 0.00 0.00 0.00 63 1011.1
20260510090523 68 117 0.0 0.0 0.00 0.00 0.00 63 1011.2
20260510090023 68 117 0.0 0.0 0.00 0.00 0.00 63 1011.2
20260510085522 68 117 0.0 0.9 0.00 0.00 0.00 63 1011.1
20260510085021 68 117 0.0 0.9 0.00 0.00 0.00 64 1011.1
20260510084521 68 117 0.0 0.0 0.00 0.00 0.00 64 1011.1
20260510084021 68 117 0.0 0.0 0.00 0.00 0.00 64 1011.2
20260510083523 68 117 0.0 0.0 0.00 0.00 0.00 65 1011.2
20260510083020 68 117 0.0 0.0 0.00 0.00 0.00 65 1011.2
20260510082520 69 117 0.0 0.0 0.00 0.00 0.00 66 1011.2
20260510082018 69 117 0.0 0.0 0.00 0.00 0.00 67 1011.2
20260510081518 69 117 0.0 0.0 0.00 0.00 0.00 67 1011.1
20260510081017 69 117 0.0 0.0 0.00 0.00 0.00 69 1011.0
20260510080517 70 117 0.0 0.0 0.00 0.00 0.00 70 1011.0
20260510080017 70 117 0.0 0.0 0.00 0.00 0.00 70 1011.0
20260510075514 70 117 0.0 0.0 0.00 0.00 0.00 70 1011.1
20260510075013 71 117 0.0 0.0 0.00 0.00 0.00 71 1011.1
20260510074511 71 117 0.0 0.0 0.00 0.00 0.00 71 1011.1
20260510074010 72 117 0.0 0.0 0.00 0.00 0.00 71 1011.0
20260510073509 72 117 0.0 0.9 0.00 0.00 0.00 70 1011.1
20260510073008 72 117 0.0 0.9 0.00 0.00 0.00 70 1011.0
20260510072508 72 117 0.0 0.9 0.00 0.00 0.00 70 1011.0
20260510072007 72 117 0.0 0.9 0.00 0.00 0.00 70 1011.0
20260510071507 73 117 0.0 0.9 0.00 0.00 0.00 70 1011.1
20260510071007 73 137 0.0 0.0 0.00 0.00 0.00 70 1011.1
20260510070506 73 119 0.0 0.9 0.00 0.00 0.00 70 1011.1
20260510070007 73 138 0.0 0.9 0.00 0.00 0.00 70 1011.2
20260510065506 73 136 0.0 0.9 0.00 0.00 0.00 70 1011.1
20260510065004 73 138 0.0 0.9 0.00 0.00 0.00 70 1011.2
20260510064507 73 125 0.0 1.7 0.00 0.00 0.00 70 1011.2
20260510064005 73 113 0.0 1.7 0.00 0.00 0.00 69 1011.3
20260510063502 74 153 0.0 1.7 0.00 0.00 0.00 69 1011.2
20260510063002 74 115 0.0 1.7 0.00 0.00 0.00 69 1011.2
20260510062502 74 167 0.0 2.6 0.00 0.00 0.00 69 1011.2
20260510062001 74 145 0.0 2.6 0.00 0.00 0.00 69 1011.2
20260510061501 74 144 0.0 0.9 0.00 0.00 0.00 69 1011.2
20260510061100 74 127 0.0 0.9 0.00 0.00 0.00 68 1011.2
20260510060559 75 117 0.0 0.9 0.00 0.00 0.00 68 1011.1
20260510060101 75 139 0.0 1.7 0.00 0.00 0.00 68 1011.1
20260510055556 75 138 0.0 1.7 0.00 0.00 0.00 68 1011.1
20260510055055 76 125 0.0 2.6 0.00 0.00 0.00 67 1010.9
20260510054558 76 200 0.0 2.6 0.00 0.00 0.00 67 1011.0
20260510054053 76 128 0.0 3.5 0.00 0.00 0.00 66 1010.9
20260510053553 76 119 0.0 2.6 0.00 0.00 0.00 66 1010.8
20260510053058 76 156 0.0 4.3 0.00 0.00 0.00 66 1010.9
20260510052552 76 110 0.0 4.3 0.00 0.00 0.00 66 1010.8
20260510052051 76 159 0.9 5.2 0.00 0.00 0.00 66 1010.8
20260510051624 77 114 1.7 5.2 0.00 0.00 0.00 66 1010.8
20260510051051 77 139 0.0 4.3 0.00 0.00 0.00 65 1010.7
20260510050548 77 143 0.0 5.2 0.00 0.00 0.00 65 1010.7
20260510050047 77 145 0.9 4.3 0.00 0.00 0.00 65 1010.7
20260510045547 77 119 0.9 4.3 0.00 0.00 0.00 65 1010.7
20260510045045 77 104 0.9 4.3 0.00 0.00 0.00 65 1010.6
20260510044548 77 127 0.9 3.5 0.00 0.00 0.00 66 1010.6
20260510044046 76 131 0.0 0.9 0.00 0.00 0.00 66 1010.7
20260510043546 76 91 0.0 0.9 0.00 0.00 0.00 66 1010.7
20260510043115 76 106 0.0 0.9 0.00 0.00 0.00 65 1010.7
20260510042547 77 121 0.0 0.0 0.00 0.00 0.00 64 1010.7
20260510042047 77 112 0.0 0.9 0.00 0.00 0.00 64 1010.6
20260510041551 77 108 0.0 0.9 0.00 0.00 0.00 64 1010.6
20260510041045 78 114 0.0 1.7 0.00 0.00 0.00 63 1010.5
20260510040545 78 125 0.0 2.6 0.00 0.00 0.00 64 1010.5
20260510040044 78 131 0.0 0.9 0.00 0.00 0.00 64 1010.4
20260510035543 78 115 0.0 0.9 0.00 0.00 0.00 64 1010.4
20260510035046 78 134 0.0 0.9 0.00 0.00 0.00 64 1010.4
20260510034550 78 129 0.0 0.9 0.00 0.00 0.00 64 1010.3
20260510034042 78 142 0.0 0.9 0.00 0.00 0.00 64 1010.3
20260510033545 78 121 0.0 0.9 0.00 0.00 0.00 64 1010.2
20260510033048 78 120 0.0 0.9 0.00 0.00 0.00 64 1010.2
20260510032543 78 101 0.0 0.9 0.00 0.00 0.00 64 1010.1
20260510032042 78 111 0.0 0.9 0.00 0.00 0.00 64 1010.1
20260510031613 78 112 0.0 0.9 0.00 0.00 0.00 64 1010.0
20260510031042 78 108 0.0 1.7 0.00 0.00 0.00 64 1010.0
20260510030542 78 101 0.0 1.7 0.00 0.00 0.00 64 1009.9
20260510030042 78 120 0.0 0.9 0.00 0.00 0.00 64 1009.9
20260510025541 78 120 0.0 0.0 0.00 0.00 0.00 64 1009.8
20260510025041 78 107 0.0 0.0 0.00 0.00 0.00 64 1009.8
20260510024543 79 107 0.0 0.0 0.00 0.00 0.00 63 1009.7
20260510024041 79 107 0.0 0.0 0.00 0.00 0.00 63 1009.7
20260510023541 79 109 0.0 0.0 0.00 0.00 0.00 62 1009.6
20260510023048 80 109 0.0 0.0 0.00 0.00 0.00 62 1009.5
20260510022541 80 108 0.0 1.7 0.00 0.00 0.00 62 1009.4
20260510022040 80 110 0.0 1.7 0.00 0.00 0.00 61 1009.3
20260510021544 80 114 0.0 0.9 0.00 0.00 0.00 61 1009.2
20260510021040 80 144 0.0 0.0 0.00 0.00 0.00 61 1009.1
20260510020543 81 138 0.0 0.0 0.00 0.00 0.00 60 1008.9
20260510020040 81 138 0.0 0.0 0.00 0.00 0.00 59 1008.8
20260510015539 82 117 0.0 0.9 0.00 0.00 0.00 59 1008.7
20260510015040 82 117 0.0 0.9 0.00 0.00 0.00 58 1008.5
20260510014540 83 150 0.0 0.0 0.00 0.00 0.00 57 1008.5
20260510014040 83 149 0.0 0.9 0.00 0.00 0.00 57 1008.4
20260510013640 84 123 0.0 0.9 0.00 0.00 0.00 56 1008.3
20260510013041 84 123 0.0 1.7 0.00 0.00 0.00 55 1008.3
20260510012541 85 131 0.0 3.5 0.00 0.00 0.00 55 1008.2
20260510012039 85 143 0.0 3.5 0.00 0.00 0.00 54 1008.2
20260510011553 85 129 0.0 1.7 0.00 0.00 0.00 54 1008.2
20260510011038 86 153 0.0 1.7 0.00 0.00 0.00 53 1008.2
20260510010540 86 145 0.0 2.6 0.00 0.00 0.00 53 1008.2
20260510010045 87 131 0.0 3.5 0.00 0.00 0.00 52 1008.2
20260510005538 87 132 0.0 3.5 0.00 0.00 0.00 52 1008.2
20260510005037 87 94 1.7 3.5 0.00 0.00 0.00 51 1008.2
20260510004537 88 131 0.9 6.1 0.00 0.00 0.00 50 1008.1
20260510004041 89 108 1.7 6.1 0.00 0.00 0.00 49 1008.1
20260510003537 89 126 0.9 3.5 0.00 0.00 0.00 47 1008.1
20260510003037 90 162 0.0 5.2 0.00 0.00 0.00 47 1008.1
20260510002536 91 113 1.7 5.2 0.00 0.00 0.00 45 1008.1
20260510002037 92 181 0.9 3.5 0.00 0.00 0.00 44 1008.1
20260510001538 93 117 0.0 1.7 0.00 0.00 0.00 43 1008.1
20260510001036 93 122 0.0 0.0 0.00 0.00 0.00 40 1008.0
20260510000535 93 149 0.0 0.0 0.00 0.00 0.00 42 1008.0
20260510000034 92 149 0.0 1.7 0.00 0.00 0.00 42 1008.0
20260509235534 92 165 0.0 1.7 0.00 0.00 0.00 42 1008.0
20260509235035 92 148 0.0 0.0 0.00 0.00 0.00 45 1008.0
20260509234536 91 113 0.0 0.9 0.00 0.00 0.00 44 1008.0
20260509234033 92 113 0.0 0.9 0.00 0.00 0.00 43 1008.0
20260509233535 92 143 0.0 3.5 0.00 0.00 0.00 44 1007.9
20260509233033 91 116 0.0 3.5 0.00 0.00 0.00 43 1007.9
20260509232533 92 110 0.9 2.6 0.00 0.00 0.00 44 1007.9
20260509232032 92 132 0.0 2.6 0.00 0.00 0.00 44 1007.9
20260509231533 92 88 0.0 3.5 0.00 0.00 0.00 44 1007.8
20260509231032 92 108 0.0 2.6 0.00 0.00 0.00 44 1007.9
20260509230531 93 105 0.0 1.7 0.00 0.00 0.00 43 1007.9
20260509230031 93 20 0.0 2.6 0.00 0.00 0.00 46 1007.9
20260509225530 92 205 0.0 2.6 0.00 0.00 0.00 46 1007.9
20260509225028 92 134 0.9 3.5 0.00 0.00 0.00 46 1007.8
20260509224529 91 238 0.0 2.6 0.00 0.00 0.00 44 1007.9
20260509224029 91 75 0.0 2.6 0.00 0.00 0.00 45 1007.8
20260509223528 91 124 0.0 2.6 0.00 0.00 0.00 44 1007.8
20260509223029 92 40 0.0 1.7 0.00 0.00 0.00 43 1007.8
20260509222530 91 226 0.0 1.7 0.00 0.00 0.00 48 1007.8
20260509222027 91 253 0.0 3.5 0.00 0.00 0.00 46 1007.8
20260509221531 90 321 0.9 3.5 0.00 0.00 0.00 45 1007.9
20260509221027 90 286 0.0 0.9 0.00 0.00 0.00 46 1008.0
20260509220525 91 138 0.0 2.6 0.00 0.00 0.00 47 1008.0
20260509220025 92 134 0.9 2.6 0.00 0.00 0.00 44 1008.0
20260509215528 92 200 0.0 2.6 0.00 0.00 0.00 46 1008.0
20260509215024 92 30 0.0 2.6 0.00 0.00 0.00 47 1008.1
20260509214523 92 44 0.0 1.7 0.00 0.00 0.00 47 1008.1
20260509214024 91 352 0.0 2.6 0.00 0.00 0.00 46 1008.2
20260509213523 91 11 0.0 2.6 0.00 0.00 0.00 47 1008.2
20260509213024 91 66 0.0 2.6 0.00 0.00 0.00 48 1008.3
20260509212521 91 260 0.0 2.6 0.00 0.00 0.00 46 1008.3
20260509212021 91 272 0.0 2.6 0.00 0.00 0.00 46 1008.3
20260509211547 92 160 0.9 3.5 0.00 0.00 0.00 45 1008.3
20260509211020 91 280 0.9 3.5 0.00 0.00 0.00 50 1008.4
20260509210518 91 24 0.0 1.7 0.00 0.00 0.00 46 1008.5
20260509210017 91 226 0.0 4.3 0.00 0.00 0.00 47 1008.7
20260509205516 91 231 0.0 4.3 0.00 0.00 0.00 46 1008.8
20260509205019 91 240 0.0 3.5 0.00 0.00 0.00 47 1008.8
20260509204515 91 264 0.0 3.5 0.00 0.00 0.00 49 1008.9
20260509204015 90 302 0.9 3.5 0.00 0.00 0.00 49 1009.0
20260509203514 90 94 0.0 2.6 0.00 0.00 0.00 51 1009.2
20260509203032 90 49 0.9 2.6 0.00 0.00 0.00 49 1009.3
20260509202514 91 318 0.0 1.7 0.00 0.00 0.00 49 1009.3
20260509202016 90 255 0.0 1.7 0.00 0.00 0.00 52 1009.4
20260509201513 90 156 0.0 2.6 0.00 0.00 0.00 49 1009.5
20260509201014 90 97 0.9 2.6 0.00 0.00 0.00 49 1009.6
20260509200512 90 233 0.0 4.3 0.00 0.00 0.00 51 1009.7
20260509200011 90 302 0.9 4.3 0.00 0.00 0.00 51 1009.8
20260509195512 89 263 0.0 2.6 0.00 0.00 0.00 52 1009.8
20260509195010 89 311 0.0 2.6 0.00 0.00 0.00 51 1009.8
20260509194511 90 284 0.0 4.3 0.00 0.00 0.00 52 1009.9
20260509194011 90 285 0.0 4.3 0.00 0.00 0.00 52 1010.0
20260509193510 90 288 0.9 3.5 0.00 0.00 0.00 52 1010.0
20260509193010 89 295 0.0 4.3 0.00 0.00 0.00 52 1010.1
20260509192509 89 237 0.0 4.3 0.00 0.00 0.00 54 1010.2
20260509192009 89 88 0.0 3.5 0.00 0.00 0.00 53 1010.2
20260509191512 89 188 1.7 3.5 0.00 0.00 0.00 50 1010.3
20260509191013 89 251 0.9 3.5 0.00 0.00 0.00 53 1010.4
20260509190509 89 279 0.9 5.2 0.00 0.00 0.00 56 1010.4
20260509190007 88 236 0.9 5.2 0.00 0.00 0.00 57 1010.5
20260509185504 88 215 0.9 5.2 0.00 0.00 0.00 57 1010.6
20260509185003 87 284 0.0 0.9 0.00 0.00 0.00 59 1010.7
20260509184503 87 266 0.0 2.6 0.00 0.00 0.00 56 1010.7
20260509184004 87 286 0.0 2.6 0.00 0.00 0.00 57 1010.7
20260509183504 87 195 0.0 3.5 0.00 0.00 0.00 56 1010.7
20260509183010 87 224 0.0 4.3 0.00 0.00 0.00 56 1010.8
20260509182503 87 306 1.7 4.3 0.00 0.00 0.00 55 1011.0
20260509182101 87 260 0.9 3.5 0.00 0.00 0.00 58 1011.0
20260509181610 87 295 0.9 3.5 0.00 0.00 0.00 53 1011.0
20260509181059 86 289 0.9 3.5 0.00 0.00 0.00 49 1011.0
20260509180559 85 313 0.0 5.2 0.00 0.00 0.00 48 1011.1
20260509180058 84 240 1.7 5.2 0.00 0.00 0.00 49 1011.2
20260509175557 85 307 0.0 3.5 0.00 0.00 0.00 49 1011.1
20260509175057 86 215 0.0 4.3 0.00 0.00 0.00 46 1011.2
20260509174556 85 214 0.9 7.0 0.00 0.00 0.00 48 1011.1
20260509174056 85 236 0.9 8.7 0.00 0.00 0.00 47 1011.2
20260509173555 85 242 2.6 8.7 0.00 0.00 0.00 47 1011.3
20260509173107 85 273 0.9 7.0 0.00 0.00 0.00 48 1011.3
20260509172555 84 141 0.9 7.0 0.00 0.00 0.00 49 1011.4
20260509172053 84 233 0.9 6.1 0.00 0.00 0.00 49 1011.4
20260509171603 83 231 1.7 6.1 0.00 0.00 0.00 50 1011.4
20260509171050 83 185 1.7 6.1 0.00 0.00 0.00 51 1011.4
20260509170548 82 212 1.7 6.1 0.00 0.00 0.00 52 1011.5
20260509170048 81 242 0.0 2.6 0.00 0.00 0.00 56 1011.6
20260509165546 80 208 0.0 5.2 0.00 0.00 0.00 54 1011.6
20260509165048 81 195 0.0 3.5 0.00 0.00 0.00 55 1011.7
20260509164547 81 199 0.0 3.5 0.00 0.00 0.00 55 1011.8
20260509164047 81 255 0.0 4.3 0.00 0.00 0.00 55 1011.8
20260509163548 81 240 0.0 3.5 0.00 0.00 0.00 56 1011.8
20260509163056 81 257 0.9 3.5 0.00 0.00 0.00 55 1011.9
20260509162545 80 213 0.0 3.5 0.00 0.00 0.00 55 1011.9
20260509162046 81 104 0.0 4.3 0.00 0.00 0.00 55 1012.0
20260509161544 81 124 0.0 3.5 0.00 0.00 0.00 56 1012.1
20260509161044 81 197 0.0 3.5 0.00 0.00 0.00 55 1012.1
20260509160541 80 217 0.0 5.2 0.00 0.00 0.00 57 1012.0
20260509160040 79 164 0.9 5.2 0.00 0.00 0.00 58 1011.9
20260509155538 78 198 0.9 6.1 0.00 0.00 0.00 59 1012.0
20260509155039 77 229 0.0 6.1 0.00 0.00 0.00 59 1012.1
20260509154537 76 141 0.0 0.9 0.00 0.00 0.00 59 1012.3
20260509154035 76 350 0.0 0.9 0.00 0.00 0.00 59 1012.4